Time,TemperatureF,DewpointF,PressureIn,WindDirection,WindDirectionDegrees,WindSpeedMPH,WindSpeedGustMPH,Humidity,HourlyPrecipIn,Conditions,Clouds,dailyrainin,SoftwareType,DateUTC
2013-10-23 00:03:00,43.8,41.0,29.85,WNW,285,0.0,0.0,88,0.00,,,0.00,weatherlink.com 1.10,2013-10-23 04:03:00,
2013-10-23 00:19:00,43.2,40.0,29.84,WNW,285,0.0,1.0,88,0.00,,,0.00,weatherlink.com 1.10,2013-10-23 04:19:00,
2013-10-23 00:34:00,42.4,40.0,29.85,WNW,285,0.0,0.0,90,0.00,,,0.00,weatherlink.com 1.10,2013-10-23 04:34:00,
2013-10-23 00:49:00,41.9,40.0,29.84,WNW,285,0.0,1.0,91,0.00,,,0.00,weatherlink.com 1.10,2013-10-23 04:49:00,
2013-10-23 01:04:00,41.5,39.0,29.84,WNW,285,0.0,0.0,91,0.00,,,0.00,weatherlink.com 1.10,2013-10-23 05:04:00,
2013-10-23 01:19:00,41.1,39.0,29.84,WNW,285,0.0,0.0,92,0.00,,,0.00,weatherlink.com 1.10,2013-10-23 05:19:00,
2013-10-23 01:34:00,40.9,39.0,29.84,WNW,285,0.0,0.0,92,0.00,,,0.00,weatherlink.com 1.10,2013-10-23 05:34:00,
2013-10-23 01:49:00,40.4,38.0,29.84,WNW,285,0.0,0.0,92,0.00,,,0.00,weatherlink.com 1.10,2013-10-23 05:49:00,
2013-10-23 02:04:00,40.0,38.0,29.84,WNW,285,0.0,0.0,93,0.00,,,0.00,weatherlink.com 1.10,2013-10-23 06:04:00,
2013-10-23 02:19:00,39.7,38.0,29.84,WNW,285,0.0,0.0,94,0.00,,,0.00,weatherlink.com 1.10,2013-10-23 06:19:00,
2013-10-23 02:34:00,39.3,38.0,29.84,WNW,285,0.0,0.0,93,0.00,,,0.00,weatherlink.com 1.10,2013-10-23 06:34:00,
2013-10-23 02:49:00,39.1,38.0,29.83,WNW,285,0.0,0.0,94,0.00,,,0.00,weatherlink.com 1.10,2013-10-23 06:49:00,
2013-10-23 03:04:00,38.7,37.0,29.83,WNW,285,0.0,0.0,94,0.00,,,0.00,weatherlink.com 1.10,2013-10-23 07:04:00,
2013-10-23 03:19:00,38.1,37.0,29.82,WNW,285,0.0,1.0,94,0.00,,,0.00,weatherlink.com 1.10,2013-10-23 07:19:00,
2013-10-23 03:35:00,37.9,37.0,29.82,WNW,285,0.0,0.0,95,0.00,,,0.00,weatherlink.com 1.10,2013-10-23 07:35:00,
2013-10-23 03:49:00,38.1,37.0,29.82,WNW,285,0.0,0.0,95,0.00,,,0.00,weatherlink.com 1.10,2013-10-23 07:49:00,
2013-10-23 04:04:00,38.2,37.0,29.81,WNW,285,0.0,0.0,95,0.00,,,0.00,weatherlink.com 1.10,2013-10-23 08:04:00,
2013-10-23 04:19:00,38.3,37.0,29.81,WNW,285,0.0,0.0,95,0.00,,,0.00,weatherlink.com 1.10,2013-10-23 08:19:00,
2013-10-23 04:34:00,38.8,38.0,29.82,SSW,205,0.0,1.0,96,0.00,,,0.00,weatherlink.com 1.10,2013-10-23 08:34:00,
2013-10-23 04:49:00,39.1,38.0,29.81,SSW,204,0.0,0.0,95,0.00,,,0.00,weatherlink.com 1.10,2013-10-23 08:49:00,
2013-10-23 05:04:00,39.0,38.0,29.80,SSW,204,0.0,0.0,95,0.00,,,0.00,weatherlink.com 1.10,2013-10-23 09:04:00,
2013-10-23 05:19:00,38.9,38.0,29.80,SSW,204,0.0,0.0,95,0.00,,,0.00,weatherlink.com 1.10,2013-10-23 09:19:00,
2013-10-23 05:34:00,38.4,37.0,29.80,SW,217,0.0,1.0,95,0.00,,,0.00,weatherlink.com 1.10,2013-10-23 09:34:00,
2013-10-23 05:49:00,38.2,37.0,29.80,SW,219,0.0,0.0,95,0.00,,,0.00,weatherlink.com 1.10,2013-10-23 09:49:00,
2013-10-23 06:04:00,37.6,36.0,29.80,SW,218,0.0,0.0,95,0.00,,,0.00,weatherlink.com 1.10,2013-10-23 10:04:00,
2013-10-23 06:19:00,37.3,36.0,29.80,SW,218,0.0,0.0,95,0.00,,,0.00,weatherlink.com 1.10,2013-10-23 10:19:00,
2013-10-23 06:34:00,36.8,36.0,29.80,SW,218,0.0,0.0,95,0.00,,,0.00,weatherlink.com 1.10,2013-10-23 10:34:00,
2013-10-23 06:49:00,36.2,35.0,29.80,SW,218,0.0,0.0,95,0.00,,,0.00,weatherlink.com 1.10,2013-10-23 10:49:00,
2013-10-23 07:04:00,36.2,35.0,29.79,SW,218,0.0,0.0,96,0.00,,,0.00,weatherlink.com 1.10,2013-10-23 11:04:00,
2013-10-23 07:19:00,36.6,36.0,29.80,SW,218,0.0,0.0,96,0.00,,,0.00,weatherlink.com 1.10,2013-10-23 11:19:00,
2013-10-23 07:34:00,36.7,36.0,29.80,SW,218,0.0,0.0,96,0.00,,,0.00,weatherlink.com 1.10,2013-10-23 11:34:00,
2013-10-23 07:49:00,37.6,37.0,29.80,SW,218,0.0,0.0,97,0.00,,,0.00,weatherlink.com 1.10,2013-10-23 11:49:00,
2013-10-23 08:04:00,38.3,38.0,29.80,SW,218,0.0,0.0,97,0.00,,,0.00,weatherlink.com 1.10,2013-10-23 12:04:00,
2013-10-23 08:19:00,39.5,39.0,29.80,SW,218,0.0,0.0,97,0.00,,,0.00,weatherlink.com 1.10,2013-10-23 12:19:00,
2013-10-23 08:34:00,40.8,40.0,29.80,SW,218,0.0,0.0,97,0.00,,,0.00,weatherlink.com 1.10,2013-10-23 12:34:00,
2013-10-23 08:49:00,42.0,41.0,29.81,SW,218,0.0,1.0,96,0.00,,,0.00,weatherlink.com 1.10,2013-10-23 12:49:00,
2013-10-23 09:04:00,43.0,41.0,29.81,SW,218,0.0,1.0,94,0.00,,,0.00,weatherlink.com 1.10,2013-10-23 13:04:00,
2013-10-23 09:19:00,44.0,42.0,29.81,SW,218,0.0,0.0,93,0.00,,,0.00,weatherlink.com 1.10,2013-10-23 13:19:00,
2013-10-23 09:34:00,44.7,42.0,29.80,SW,218,0.0,1.0,90,0.00,,,0.00,weatherlink.com 1.10,2013-10-23 13:34:00,
2013-10-23 09:49:00,45.4,42.0,29.79,SW,218,0.0,1.0,88,0.00,,,0.00,weatherlink.com 1.10,2013-10-23 13:49:00,
2013-10-23 10:04:00,46.1,42.0,29.78,East,79,0.0,2.0,86,0.00,,,0.00,weatherlink.com 1.10,2013-10-23 14:04:00,
2013-10-23 10:20:00,46.3,41.0,29.77,ENE,70,1.0,2.0,82,0.00,,,0.00,weatherlink.com 1.10,2013-10-23 14:20:00,
2013-10-23 10:35:00,46.8,42.0,29.77,NE,53,0.0,2.0,82,0.00,,,0.00,weatherlink.com 1.10,2013-10-23 14:35:00,
2013-10-23 10:50:00,47.0,40.0,29.77,ENE,61,0.0,2.0,78,0.00,,,0.00,weatherlink.com 1.10,2013-10-23 14:50:00,
2013-10-23 11:05:00,46.8,40.0,29.77,ENE,60,0.0,1.0,78,0.00,,,0.00,weatherlink.com 1.10,2013-10-23 15:05:00,
2013-10-23 11:20:00,47.1,41.0,29.76,NNW,345,1.0,1.0,78,0.00,,,0.00,weatherlink.com 1.10,2013-10-23 15:20:00,
2013-10-23 11:35:00,47.5,40.0,29.75,ENE,61,1.0,2.0,76,0.00,,,0.00,weatherlink.com 1.10,2013-10-23 15:35:00,
2013-10-23 11:50:00,47.9,40.0,29.73,NNE,23,1.0,2.0,74,0.00,,,0.00,weatherlink.com 1.10,2013-10-23 15:50:00,
2013-10-23 12:05:00,48.7,40.0,29.74,NE,35,0.0,3.0,72,0.00,,,0.00,weatherlink.com 1.10,2013-10-23 16:05:00,
2013-10-23 12:20:00,49.3,40.0,29.73,NE,56,1.0,2.0,71,0.00,,,0.00,weatherlink.com 1.10,2013-10-23 16:20:00,
2013-10-23 12:35:00,49.0,38.0,29.72,East,82,1.0,4.0,65,0.00,,,0.00,weatherlink.com 1.10,2013-10-23 16:35:00,
2013-10-23 12:50:00,49.3,39.0,29.70,NE,54,0.0,2.0,69,0.00,,,0.00,weatherlink.com 1.10,2013-10-23 16:50:00,
2013-10-23 13:05:00,50.5,39.0,29.68,NNW,336,1.0,3.0,65,0.00,,,0.00,weatherlink.com 1.10,2013-10-23 17:05:00,
2013-10-23 13:20:00,51.4,37.0,29.68,ENE,68,1.0,3.0,58,0.00,,,0.00,weatherlink.com 1.10,2013-10-23 17:20:00,
2013-10-23 13:35:00,50.7,37.0,29.67,ENE,60,0.0,2.0,60,0.00,,,0.00,weatherlink.com 1.10,2013-10-23 17:35:00,
2013-10-23 13:50:00,51.2,38.0,29.67,NW,307,1.0,1.0,61,0.00,,,0.00,weatherlink.com 1.10,2013-10-23 17:50:00,
2013-10-23 14:05:00,51.6,37.0,29.66,ENE,61,2.0,2.0,58,0.00,,,0.00,weatherlink.com 1.10,2013-10-23 18:05:00,
2013-10-23 14:20:00,51.4,36.0,29.66,NNE,20,0.0,2.0,57,0.00,,,0.00,weatherlink.com 1.10,2013-10-23 18:20:00,
2013-10-23 14:35:00,51.8,36.0,29.65,ESE,108,0.0,2.0,56,0.00,,,0.00,weatherlink.com 1.10,2013-10-23 18:35:00,
2013-10-23 14:50:00,52.8,36.0,29.66,WSW,242,1.0,2.0,54,0.00,,,0.00,weatherlink.com 1.10,2013-10-23 18:50:00,
2013-10-23 15:05:00,53.3,35.0,29.66,East,86,0.0,3.0,51,0.00,,,0.00,weatherlink.com 1.10,2013-10-23 19:05:00,
2013-10-23 15:20:00,54.1,36.0,29.66,WNW,283,1.0,1.0,51,0.00,,,0.00,weatherlink.com 1.10,2013-10-23 19:20:00,
2013-10-23 15:35:00,53.7,37.0,29.66,NNW,348,1.0,1.0,54,0.00,,,0.00,weatherlink.com 1.10,2013-10-23 19:35:00,
2013-10-23 15:50:00,53.3,37.0,29.65,West,277,0.0,2.0,55,0.00,,,0.00,weatherlink.com 1.10,2013-10-23 19:50:00,
2013-10-23 16:05:00,51.9,37.0,29.66,NNE,26,1.0,8.0,58,0.00,,,0.00,weatherlink.com 1.10,2013-10-23 20:05:00,
2013-10-23 16:20:00,50.6,38.0,29.67,NW,311,0.0,5.0,63,0.00,,,0.00,weatherlink.com 1.10,2013-10-23 20:20:00,
2013-10-23 16:35:00,49.5,38.0,29.67,West,277,4.0,9.0,66,0.00,,,0.00,weatherlink.com 1.10,2013-10-23 20:35:00,
2013-10-23 16:50:00,49.0,38.0,29.67,West,266,0.0,3.0,66,0.00,,,0.00,weatherlink.com 1.10,2013-10-23 20:50:00,
2013-10-23 17:05:00,49.1,38.0,29.67,WSW,238,0.0,1.0,66,0.00,,,0.00,weatherlink.com 1.10,2013-10-23 21:05:00,
2013-10-23 17:20:00,48.9,37.0,29.66,NW,304,0.0,4.0,64,0.00,,,0.00,weatherlink.com 1.10,2013-10-23 21:20:00,
2013-10-23 17:35:00,48.7,37.0,29.67,NW,305,0.0,3.0,65,0.00,,,0.00,weatherlink.com 1.10,2013-10-23 21:35:00,
2013-10-23 17:51:00,49.0,37.0,29.67,North,353,1.0,4.0,64,0.00,,,0.00,weatherlink.com 1.10,2013-10-23 21:51:00,
2013-10-23 18:06:00,49.1,37.0,29.68,North,353,0.0,1.0,63,0.00,,,0.00,weatherlink.com 1.10,2013-10-23 22:06:00,
2013-10-23 18:21:00,48.4,37.0,29.68,West,281,0.0,1.0,66,0.00,,,0.00,weatherlink.com 1.10,2013-10-23 22:21:00,
2013-10-23 18:36:00,47.8,38.0,29.69,West,281,0.0,1.0,70,0.00,,,0.00,weatherlink.com 1.10,2013-10-23 22:36:00,
2013-10-23 18:51:00,47.4,38.0,29.70,West,281,0.0,1.0,70,0.00,,,0.00,weatherlink.com 1.10,2013-10-23 22:51:00,
2013-10-23 19:06:00,47.7,36.0,29.71,North,6,2.0,4.0,64,0.00,,,0.00,weatherlink.com 1.10,2013-10-23 23:06:00,
2013-10-23 19:21:00,47.7,36.0,29.71,WNW,298,1.0,4.0,64,0.00,,,0.00,weatherlink.com 1.10,2013-10-23 23:21:00,
2013-10-23 19:36:00,47.3,36.0,29.72,WNW,289,2.0,5.0,66,0.00,,,0.00,weatherlink.com 1.10,2013-10-23 23:36:00,
2013-10-23 19:51:00,46.8,37.0,29.72,NNW,330,2.0,7.0,68,0.00,,,0.00,weatherlink.com 1.10,2013-10-23 23:51:00,
2013-10-23 20:06:00,46.4,36.0,29.72,NW,316,0.0,5.0,68,0.00,,,0.00,weatherlink.com 1.10,2013-10-24 00:06:00,
2013-10-23 20:21:00,46.0,36.0,29.73,WSW,256,6.0,6.0,69,0.00,,,0.00,weatherlink.com 1.10,2013-10-24 00:21:00,
2013-10-23 20:36:00,46.0,36.0,29.73,NNW,329,1.0,5.0,68,0.00,,,0.00,weatherlink.com 1.10,2013-10-24 00:36:00,
2013-10-23 20:51:00,46.0,36.0,29.74,West,277,3.0,5.0,69,0.00,,,0.00,weatherlink.com 1.10,2013-10-24 00:51:00,
2013-10-23 21:06:00,45.9,36.0,29.75,North,352,0.0,3.0,69,0.00,,,0.00,weatherlink.com 1.10,2013-10-24 01:06:00,
2013-10-23 21:21:00,45.8,37.0,29.75,WNW,291,0.0,4.0,70,0.00,,,0.00,weatherlink.com 1.10,2013-10-24 01:21:00,
2013-10-23 21:36:00,45.4,36.0,29.76,WSW,249,4.0,6.0,71,0.00,,,0.00,weatherlink.com 1.10,2013-10-24 01:36:00,
2013-10-23 21:51:00,44.9,36.0,29.76,West,276,0.0,3.0,72,0.00,,,0.00,weatherlink.com 1.10,2013-10-24 01:51:00,
2013-10-23 22:06:00,44.7,37.0,29.77,West,278,1.0,4.0,73,0.00,,,0.00,weatherlink.com 1.10,2013-10-24 02:06:00,
2013-10-23 22:21:00,44.5,37.0,29.77,West,281,0.0,9.0,74,0.00,,,0.00,weatherlink.com 1.10,2013-10-24 02:21:00,
2013-10-23 22:36:00,44.2,36.0,29.77,West,271,0.0,3.0,74,0.00,,,0.00,weatherlink.com 1.10,2013-10-24 02:36:00,
2013-10-23 22:51:00,43.8,36.0,29.77,WSW,253,3.0,4.0,75,0.00,,,0.00,weatherlink.com 1.10,2013-10-24 02:51:00,
2013-10-23 23:06:00,43.2,36.0,29.78,West,278,0.0,2.0,76,0.00,,,0.00,weatherlink.com 1.10,2013-10-24 03:06:00,
2013-10-23 23:21:00,42.6,36.0,29.78,NW,313,0.0,2.0,77,0.00,,,0.00,weatherlink.com 1.10,2013-10-24 03:21:00,
2013-10-23 23:36:00,42.4,36.0,29.77,WSW,244,1.0,5.0,78,0.00,,,0.00,weatherlink.com 1.10,2013-10-24 03:36:00,
2013-10-23 23:51:00,42.5,36.0,29.77,West,262,0.0,7.0,78,0.00,,,0.00,weatherlink.com 1.10,2013-10-24 03:51:00,